This is the latest recevied weather packets stored in our database for station/object KG4IFE-13. If no packets are shown the sender has not sent any weather packets the latest 10 day(s).
| Time | Temp. | Humidity | Pressure | Rain* | Wind** | Luminosity | Snow |
|---|---|---|---|---|---|---|---|
| 1777682347 | 16.11° C | 57% | 1010.8 hPa | - | - | - | - |
| 1777680230 | 16.67° C | 55% | 1009.8 hPa | - | - | - | - |
| 1777677523 | 17.22° C | 53% | 1009.9 hPa | - | - | - | - |
| 1777676919 | 17.78° C | 52% | 1009.9 hPa | - | - | - | - |
| 1777676619 | 17.78° C | 52% | 1009.9 hPa | - | - | - | - |
| 1777676026 | 17.78° C | 52% | 1009.9 hPa | - | - | - | - |
| 1777674811 | 18.33° C | 51% | 1009.9 hPa | - | - | - | - |
| 1777673930 | 18.33° C | 50% | 1010 hPa | - | - | - | - |
| 1777670918 | 18.89° C | 49% | 1010.4 hPa | - | - | - | - |
| 1777669413 | 18.89° C | 48% | 1010.5 hPa | - | - | - | - |
| 1777667588 | 19.44° C | 46% | 1010.9 hPa | - | - | - | - |
| 1777664598 | 19.44° C | 45% | 1011.9 hPa | - | - | - | - |
| 1777663977 | 19.44° C | 46% | 1011.9 hPa | - | - | - | - |
| 1777662472 | 18.89° C | 47% | 1012.4 hPa | - | - | - | - |
| 1777661567 | 18.89° C | 46% | 1012.6 hPa | - | - | - | - |
| 1777660968 | 18.89° C | 46% | 1012.7 hPa | - | - | - | - |
| 1777658859 | 18.89° C | 47% | 1013.3 hPa | - | - | - | - |
| 1777658277 | 18.89° C | 47% | 1013.7 hPa | - | - | - | - |
| 1777657955 | 18.33° C | 47% | 1013.7 hPa | - | - | - | - |
| 1777656753 | 18.33° C | 50% | 1014 hPa | - | - | - | - |
| 1777655547 | 17.78° C | 50% | 1014.5 hPa | - | - | - | - |
| 1777654647 | 17.78° C | 50% | 1014.6 hPa | - | - | - | - |
| 1777653165 | 16.67° C | 51% | 1015 hPa | - | - | - | - |
| 1777651636 | 15.56° C | 54% | 1015.4 hPa | - | - | - | - |
| 1777650431 | 15° C | 54% | 1015.7 hPa | - | - | - | - |
* Rain since midnight (hover to see other rain measurements)
** Current wind speed in m/s (hover to see current wind gust speed)